Starlink 11632

operational
NORAD ID: 63108 Int'l Des: 2025-039 Owner: SPXS Country: US Constellation: starlink
LEOCIRCULAR

About Starlink 11632

Description loading...

Live Position

Loading 3D Globe...

Upcoming Passes

Altitude History

Altitude vs Time

uPlot chart will show altitude changes over time

Two-Line Element Set

1 63108U 25039E 25303.27904269 .00342279 00000-0 25498-2 0 9996
2 63108 42.9998 303.0622 0002456 262.6481 97.4108 15.70959981 39109
Epoch: Oct 30, 2025 • Age: 18 hours

Current Status

Altitude 365.3 km
Velocity 7.69 km/s
Sub-Earth Point -40.22°S, 176.03°W
Launch Date Feb 27, 2025
Age 0.6 years
Type internet

Technical Details

Classification Payload
Mass 960.00 kg
Dry Mass 910.00 kg
Total Mass 960.00 kg
Length 0.30 m
Diameter 4.10 m
Span 29.00 m
Shape Box + pan
Manufacturer SPXS
Bus Type Starlink V2MD
Phase Status In Orbit
Owner/State SPXS/US

Large Constellations

Loading constellations...